Location: Balaclava NSW 2575, Australia
(34.4510°S, 150.4953°E)
Time: 00:10:16
(UTC+10:00)

Vanguard 3 - All Passes

Search period start: 23 June 2021 00:00
Search period end: 03 July 2021 00:00
Orbit: 508 x 3261 km, 33.3° (Epoch: 21 June)

Date Brightness Start Highest point End Pass type
(mag) Time Alt. Az. Time Alt. Az. Time Alt. Az.
23 Jun - 01:26:16 10° W 01:34:55 19° NW 01:41:21 10° NNW night (unlit)
23 Jun - 15:04:04 10° NNW 15:17:08 40° NE 15:34:24 10° E daylight
23 Jun - 17:15:06 10° WNW 17:32:22 73° NNE 17:52:00 10° E visible
23 Jun - 19:30:03 10° W 19:50:04 87° N 20:07:19 10° E visible
23 Jun - 21:47:19 10° W 22:07:06 72° NNW 22:20:31 10° ENE visible
24 Jun - 00:06:17 10° W 00:20:48 35° NW 00:30:20 10° NNE visible
24 Jun - 13:52:09 10° N 14:02:01 24° NE 14:14:58 10° E daylight
24 Jun - 16:00:30 10° NW 16:15:26 59° NNE 16:34:52 10° ESE daylight
24 Jun - 18:13:39 10° WNW 18:32:14 84° N 18:51:22 10° E visible
24 Jun - 20:29:46 10° W 20:50:06 83° NNW 21:05:54 10° ENE visible
24 Jun - 22:47:38 10° WSW 23:05:43 53° NNW 23:17:38 10° NE visible
25 Jun - 01:09:15 10° W 01:17:39 17° NW 01:24:09 10° NNW night (unlit)
25 Jun - 12:45:04 10° NE 12:47:40 11° NE 12:50:30 10° ENE daylight
25 Jun - 14:47:02 10° NNW 14:59:26 43° NE 15:16:52 10° ESE daylight
25 Jun - 16:58:10 10° WNW 17:14:39 76° NNE 17:34:41 10° E visible
25 Jun - 19:12:50 10° W 19:32:26 87° N 19:50:28 10° E visible
25 Jun - 21:29:41 10° WSW 21:49:35 69° NNW 22:03:52 10° NE visible
25 Jun - 23:48:41 10° W 00:03:22 33° NW 00:13:30 10° NNE visible
26 Jun - 13:34:56 10° N 13:44:28 27° NE 13:57:39 10° E daylight
26 Jun - 15:43:40 10° NW 15:57:45 63° NNE 16:17:19 10° ESE daylight
26 Jun - 17:56:40 10° W 18:14:33 86° N 18:34:14 10° E visible
26 Jun - 20:12:22 10° W 20:32:28 80° NNW 20:49:09 10° ENE visible
26 Jun - 22:29:56 10° WSW 22:48:10 50° NW 23:00:54 10° NE visible
27 Jun - 00:52:26 10° W 01:00:16 15° NW 01:06:38 10° NNW night (unlit)
27 Jun - 12:26:09 10° NE 12:30:19 12° NE 12:35:07 10° ENE daylight
27 Jun - 14:30:11 10° NNW 14:41:51 46° NE 14:59:14 10° ESE daylight
27 Jun - 16:41:23 10° WNW 16:56:59 79° NNE 17:17:16 10° E daylight
27 Jun - 18:55:44 10° W 19:14:45 86° N 19:33:31 10° E visible
27 Jun - 21:12:07 10° WSW 21:31:56 66° NNW 21:47:06 10° NE visible
27 Jun - 23:31:10 10° W 23:45:50 30° NW 23:56:30 10° N visible
28 Jun - 13:17:57 10° N 13:27:01 29° NE 13:40:11 10° E daylight
28 Jun - 15:26:59 10° NW 15:40:11 66° NNE 15:59:40 10° ESE daylight
28 Jun - 17:39:50 10° W 17:56:54 86° N 18:17:00 10° E visible
28 Jun - 19:55:05 10° W 20:14:46 78° NNW 20:32:16 10° ENE visible
28 Jun - 22:12:20 10° WSW 22:30:30 46° NW 22:44:00 10° NNE visible
29 Jun - 00:36:00 10° W 00:42:49 14° NW 00:48:39 10° NNW visible
29 Jun - 12:08:16 10° NNE 12:13:01 14° NE 12:18:50 10° E daylight
29 Jun - 14:13:30 10° NW 14:24:24 49° NE 14:41:30 10° ESE daylight
29 Jun - 16:24:44 10° WNW 16:39:26 81° NNE 16:59:45 10° E daylight
29 Jun - 18:38:44 10° W 18:57:04 85° N 19:16:25 10° ENE visible
29 Jun - 20:54:41 10° WSW 21:14:11 62° NNW 21:30:10 10° NE visible
29 Jun - 23:13:49 10° W 23:28:12 28° NW 23:39:16 10° N visible
30 Jun - 13:01:09 10° NNW 13:09:40 31° NE 13:22:39 10° E daylight
30 Jun - 15:10:25 10° WNW 15:22:44 70° NNE 15:41:56 10° E daylight
30 Jun - 17:23:06 10° W 17:39:18 87° N 17:59:39 10° E visible
30 Jun - 19:37:54 10° W 19:57:01 75° NNW 20:15:13 10° ENE visible
30 Jun - 21:54:53 10° W 22:12:44 43° NW 22:26:54 10° NNE visible
01 Jul - 00:20:16 10° WNW 00:25:19 12° NW 00:29:52 10° NW visible
01 Jul - 11:50:52 10° NNE 11:55:50 15° NE 12:02:09 10° E daylight
01 Jul - 13:56:59 10° NW 14:07:05 53° NNE 14:23:43 10° ESE daylight
01 Jul - 16:08:11 10° WNW 16:21:59 83° N 16:42:09 10° E daylight
01 Jul - 18:21:51 10° W 18:39:24 83° N 18:59:12 10° ENE visible
01 Jul - 20:37:22 10° WSW 20:56:22 58° NNW 21:13:04 10° NE visible
01 Jul - 22:56:40 10° W 23:10:30 25° NW 23:21:47 10° N visible
02 Jul - 12:44:31 10° NNW 12:52:29 33° NE 13:05:04 10° E daylight
02 Jul - 14:54:00 10° WNW 15:05:27 73° NNE 15:24:09 10° E daylight
02 Jul - 17:06:29 10° W 17:21:46 87° N 17:42:12 10° E visible
02 Jul - 19:20:50 10° W 19:39:14 71° NNW 19:58:01 10° ENE visible
02 Jul - 21:37:34 10° W 21:54:55 39° NW 22:09:35 10° NNE visible
